Regional Weather Roundup
Issued by NWS Green Bay, WI

Home | Current Version | Previous Version | Graphics & Text | Print | Product List | Glossary Off
Versions: 1 2 3 4 5 6 7 8 9 10 11 12 13 14 15 16 17 18 19 20 21 22 23 24 25 26 27 28 29 30 31 32 33 34 35 36 37 38 39 40 41 42 43 44 45 46 47 48 49 50

000
ASUS43 KGRB 190611
RWRGRB

NORTH-CENTRAL AND NORTHEAST WISCONSIN REGIONAL WEATHER ROUNDUP
NATIONAL WEATHER SERVICE GREEN BAY WI
1200 AM CST FRI JAN 19 2018

WIZ005-009-010>012-018-019-190700-
NORTH CENTRAL WISCONSIN

CITY           SKY/WX    TMP DP  RH WIND       PRES   REMARKS
IRONWOOD       FAIR      28  22  78 SW9       29.68F
MANITOWISH WTR FAIR      21  21 100 SW3       29.69F
ARBOR VITAE    FAIR      25  21  87 SW6       29.69F
EAGLE RIVER    FAIR      15  15  98 CALM      29.70S
LAND O LAKES   FAIR      19  17  94 CALM      29.70F
RHINELANDER    FAIR      25  21  85 SW7       29.72S
PHILLIPS       FAIR      21  20  96 CALM      29.71S
ANTIGO         FAIR      21  18  89 W6        29.74S
TOMAHAWK       FAIR      24  21  89 CALM      29.73F
MERRILL        FAIR      20  18  93 CALM      29.76S
$$

WIZ013-073-190700-
NORTHEAST WISCONSIN

CITY           SKY/WX    TMP DP  RH WIND       PRES   REMARKS
IRON MOUNTAIN  FAIR      20  17  88 CALM      29.71F
MARINETTE      FAIR      25  20  81 SW6       29.79R
OCONTO         FAIR      26  19  74 SW7       29.79S
$$

WIZ017-030-035>037-045-190700-
CENTRAL WISCONSIN

CITY           SKY/WX    TMP DP  RH WIND       PRES   REMARKS
MEDFORD        FAIR      24  19  83 SW7       29.74S
WAUSAU         FAIR      25  19  78 CALM      29.75F
MOSINEE        FAIR      25  21  86 SW7       29.77F
MARSHFIELD     FAIR      26  19  74 SW8       29.76F
WISC RAPIDS    FAIR      24  17  74 SW7       29.81S
STEVENS POINT  FAIR      25  19  79 SW6       29.79F
WAUPACA        FAIR      26  19  74 S3        29.82R
SHAWANO        FAIR      27  20  76 CALM      29.79S
CLINTONVILLE   FAIR      23  18  80 SW3       29.80S
WAUTOMA        FAIR      23  17  78 CALM      29.83S
$$

WIZ038-039-048-051-190700-
FOX VALLEY

CITY           SKY/WX    TMP DP  RH WIND       PRES   REMARKS
NWS GREEN BAY  FAIR      23  16  74 SW5       29.81S
APPLETON       FAIR      27  18  69 SW9       29.79S
OSHKOSH        FAIR      23  17  78 SW7       29.82F
FOND DU LAC    FAIR      26  17  68 SW10      29.82F
$$

WIZ022-050-052-190700-
EAST CENTRAL WISCONSIN

CITY           SKY/WX    TMP DP  RH WIND       PRES   REMARKS
EPHRAIM        FAIR      26  19  74 SW12G20   29.77R
WASHINGTON ISL FAIR      25  20  83 SW12G17   29.77R
STURGEON BAY   FAIR      28  20  71 SW14      29.79S
MANITOWOC      FAIR      28  20  71 W13       29.82F
SHEBOYGAN      FAIR      27  19  72 SW10      29.81F
$$

LMZ563-521-522-541>543-190700-
LAKESHORE

STATION/POSITION TIME  TEMP    WIND        PRES    VSBY  WAVE
                       AIR SEA DIR/SP/G                  HT/PER
                 (UTC) (F)     (DEG/KT/KT) (MB)    (MI)  (FT/S)
SHEBOYGAN LKSHOR 0600   30     240/ 12/ 14 1010.4F
KEWAUNEE LKSHORE 0542   27     250/  5/ 10 1008.4F
NORTHPORT PIER   0556   28     250/ 11     1008.1S
MENOMINEE LKSHOR 0536   25     220/ 10/ 13 1008.3R
$$



USA.gov is the U.S. government's official web portal to all federal, state and local government web resources and services.